When you browse on this site, cookies collect data to enhance your experience and personalize the content and advertising you see.
Visit our Privacy Policy to learn more. By continuing to use the site, you agree to this use of cookies and data.
  • în România
  • Lista ţărilor
  • Pe 7 zile
  • Temperatura apei
  • Hartă satelitară
  • Meteo pe hartă
  • Widget-uri
  • user-avatar
    Intrare

    Meteo pe oră la Northampton

    Astăzi, 18 Decembrie, Marţi

    Timp Temperatura Precipitaţii Vânt Presiune Umiditate
    00:00 +7°C° 0 mm 6 m/s 752 mmHg 93%
    01:00 +7°C° 0 mm 6 m/s 751 mmHg 92%
    02:00 +6°C° 0 mm 7 m/s 751 mmHg 91%
    03:00 +8°C° 0 mm 7 m/s 751 mmHg 90%
    04:00 +7°C° 0 mm 8 m/s 750 mmHg 88%
    05:00 +7°C° 0 mm 8 m/s 750 mmHg 87%
    06:00 +7°C° 0 mm 8 m/s 749 mmHg 86%
    07:00 +7°C° 0 mm 9 m/s 748 mmHg 85%
    08:00 +7°C° 0 mm 9 m/s 748 mmHg 83%
    09:00 +7°C° 0 mm 9 m/s 747 mmHg 82%
    10:00 +7°C° 0.1 mm 9 m/s 746 mmHg 81%
    11:00 +7°C° 0.1 mm 10 m/s 746 mmHg 79%
    12:00 +7°C° 0.1 mm 10 m/s 745 mmHg 77%
    13:00 +7°C° 0.6 mm 9 m/s 745 mmHg 79%
    14:00 +6°C° 0.6 mm 9 m/s 744 mmHg 80%
    15:00 +6°C° 0.6 mm 9 m/s 743 mmHg 81%
    16:00 +6°C° 1.3 mm 9 m/s 743 mmHg 84%
    17:00 +6°C° 1.3 mm 8 m/s 742 mmHg 86%
    18:00 +6°C° 1.3 mm 8 m/s 742 mmHg 89%
    19:00 +6°C° 0.8 mm 7 m/s 742 mmHg 89%
    20:00 +7°C° 0.8 mm 6 m/s 742 mmHg 89%
    21:00 +6°C° 0.8 mm 4 m/s 742 mmHg 89%
    22:00 +6°C° 0 mm 4 m/s 743 mmHg 90%
    23:00 +6°C° 0 mm 4 m/s 743 mmHg 90%

    Mâine, 19 Decembrie, Miercuri

    Timp Temperatura Precipitaţii Vânt Presiune Umiditate
    00:00 +5°C° 0 mm 4 m/s 743 mmHg 91%
    01:00 +5°C° 0 mm 4 m/s 743 mmHg 91%
    02:00 +5°C° 0 mm 4 m/s 744 mmHg 92%
    03:00 +5°C° 0 mm 4 m/s 744 mmHg 92%
    04:00 +5°C° 0.1 mm 4 m/s 744 mmHg 92%
    05:00 +5°C° 0.1 mm 4 m/s 744 mmHg 93%
    06:00 +5°C° 0.1 mm 4 m/s 744 mmHg 93%
    07:00 +5°C° 0.1 mm 4 m/s 744 mmHg 93%
    08:00 +5°C° 0.1 mm 4 m/s 744 mmHg 93%
    09:00 +5°C° 0.1 mm 4 m/s 744 mmHg 93%
    10:00 +5°C° 0 mm 4 m/s 744 mmHg 88%
    11:00 +6°C° 0 mm 5 m/s 745 mmHg 84%
    12:00 +7°C° 0 mm 5 m/s 745 mmHg 79%
    13:00 +7°C° 0 mm 5 m/s 744 mmHg 80%
    14:00 +6°C° 0 mm 5 m/s 744 mmHg 81%
    15:00 +6°C° 0 mm 4 m/s 744 mmHg 82%
    16:00 +6°C° 0 mm 5 m/s 744 mmHg 83%
    17:00 +5°C° 0 mm 5 m/s 744 mmHg 84%
    18:00 +5°C° 0 mm 5 m/s 743 mmHg 85%
    19:00 +5°C° 0.1 mm 5 m/s 743 mmHg 86%
    20:00 +4°C° 0.1 mm 6 m/s 743 mmHg 86%
    21:00 +4°C° 0.1 mm 6 m/s 743 mmHg 86%
    22:00 +4°C° 0 mm 6 m/s 743 mmHg 86%
    23:00 +5°C° 0 mm 5 m/s 743 mmHg 86%

    Poimâine, 20 Decembrie, Joi

    Timp Temperatura Precipitaţii Vânt Presiune Umiditate
    00:00 +5°C° 0 mm 5 m/s 743 mmHg 86%
    01:00 +5°C° 0 mm 5 m/s 743 mmHg 87%
    02:00 +5°C° 0 mm 5 m/s 744 mmHg 87%
    03:00 +3°C° 0 mm 5 m/s 744 mmHg 87%
    04:00 +3°C° 0 mm 5 m/s 744 mmHg 87%
    05:00 +3°C° 0 mm 5 m/s 744 mmHg 87%
    06:00 +3°C° 0 mm 5 m/s 744 mmHg 87%
    07:00 +3°C° 0 mm 5 m/s 745 mmHg 87%
    08:00 +5°C° 0 mm 5 m/s 746 mmHg 87%
    09:00 +4°C° 0 mm 6 m/s 746 mmHg 87%
    10:00 +5°C° 0 mm 6 m/s 746 mmHg 83%
    11:00 +5°C° 0 mm 6 m/s 747 mmHg 80%
    12:00 +7°C° 0 mm 6 m/s 747 mmHg 77%
    13:00 +7°C° 0.1 mm 6 m/s 747 mmHg 77%
    14:00 +7°C° 0.1 mm 5 m/s 747 mmHg 78%
    15:00 +7°C° 0.1 mm 5 m/s 747 mmHg 79%
    16:00 +6°C° 0.1 mm 5 m/s 748 mmHg 81%
    17:00 +6°C° 0.1 mm 5 m/s 748 mmHg 83%
    18:00 +6°C° 0.1 mm 5 m/s 748 mmHg 85%
    19:00 +5°C° 0 mm 4 m/s 748 mmHg 87%
    20:00 +5°C° 0 mm 4 m/s 747 mmHg 88%
    21:00 +5°C° 0 mm 4 m/s 747 mmHg 90%
    22:00 +5°C° 0.3 mm 4 m/s 746 mmHg 91%
    23:00 +5°C° 0.3 mm 4 m/s 746 mmHg 91%

    21 Decembrie, Vineri

    Timp Temperatura Precipitaţii Vânt Presiune Umiditate
    00:00 +5°C° 0.3 mm 4 m/s 745 mmHg 92%
    01:00 +6°C° 1.1 mm 4 m/s 743 mmHg 93%
    02:00 +7°C° 1.1 mm 5 m/s 742 mmHg 94%
    03:00 +8°C° 1.1 mm 5 m/s 740 mmHg 96%
    04:00 +9°C° 0.6 mm 6 m/s 739 mmHg 94%
    05:00 +10°C° 0.6 mm 7 m/s 738 mmHg 93%
    06:00 +11°C° 0.6 mm 7 m/s 737 mmHg 92%
    07:00 +10°C° 0.6 mm 8 m/s 738 mmHg 87%
    08:00 +10°C° 0.6 mm 9 m/s 738 mmHg 82%
    09:00 +8°C° 0.6 mm 10 m/s 739 mmHg 78%
    10:00 +8°C° 0 mm 10 m/s 740 mmHg 75%
    11:00 +8°C° 0 mm 10 m/s 741 mmHg 73%
    12:00 +7°C° 0 mm 10 m/s 742 mmHg 70%
    13:00 +7°C° 0 mm 9 m/s 743 mmHg 71%
    14:00 +7°C° 0 mm 8 m/s 744 mmHg 72%
    15:00 +8°C° 0 mm 7 m/s 744 mmHg 73%
    16:00 +8°C° 0 mm 7 m/s 744 mmHg 77%
    17:00 +8°C° 0 mm 7 m/s 745 mmHg 80%
    18:00 +8°C° 0 mm 7 m/s 745 mmHg 84%
    19:00 +8°C° 0.7 mm 7 m/s 745 mmHg 86%
    20:00 +8°C° 0.7 mm 7 m/s 745 mmHg 88%
    21:00 +8°C° 0.7 mm 7 m/s 744 mmHg 89%
    22:00 +8°C° 0.8 mm 7 m/s 744 mmHg 88%
    23:00 +7°C° 0.8 mm 8 m/s 744 mmHg 87%

    22 Decembrie, Sâmbătă

    Timp Temperatura Precipitaţii Vânt Presiune Umiditate
    00:00 +9°C° 0.8 mm 8 m/s 744 mmHg 86%
    01:00 +7°C° 0 mm 8 m/s 744 mmHg 85%
    02:00 +8°C° 0 mm 7 m/s 744 mmHg 85%
    03:00 +6°C° 0 mm 7 m/s 745 mmHg 84%
    04:00 +6°C° 0 mm 7 m/s 745 mmHg 83%
    05:00 +5°C° 0 mm 6 m/s 746 mmHg 83%
    06:00 +5°C° 0 mm 6 m/s 746 mmHg 82%
    07:00 +5°C° 0 mm 6 m/s 747 mmHg 82%
    08:00 +4°C° 0 mm 6 m/s 747 mmHg 82%
    09:00 +4°C° 0 mm 6 m/s 748 mmHg 82%
    10:00 +5°C° 0 mm 6 m/s 749 mmHg 79%
    11:00 +7°C° 0 mm 6 m/s 749 mmHg 76%
    12:00 +6°C° 0 mm 7 m/s 750 mmHg 73%
    13:00 +7°C° 0 mm 6 m/s 750 mmHg 75%
    14:00 +7°C° 0 mm 5 m/s 751 mmHg 76%
    15:00 +7°C° 0 mm 5 m/s 751 mmHg 77%
    16:00 +6°C° 0 mm 4 m/s 752 mmHg 79%
    17:00 +5°C° 0 mm 4 m/s 752 mmHg 81%
    18:00 +5°C° 0 mm 4 m/s 753 mmHg 83%
    19:00 +5°C° 0 mm 4 m/s 753 mmHg 84%
    20:00 +5°C° 0 mm 4 m/s 754 mmHg 85%
    21:00 +4°C° 0 mm 4 m/s 754 mmHg 86%
    22:00 +5°C° 0 mm 4 m/s 754 mmHg 87%
    23:00 +5°C° 0 mm 4 m/s 755 mmHg 89%

    23 Decembrie, Duminică

    Timp Temperatura Precipitaţii Vânt Presiune Umiditate
    00:00 +5°C° 0 mm 4 m/s 755 mmHg 90%
    01:00 +5°C° 0 mm 4 m/s 755 mmHg 91%
    02:00 +5°C° 0 mm 4 m/s 755 mmHg 92%
    03:00 +5°C° 0 mm 4 m/s 755 mmHg 93%
    04:00 +5°C° 0 mm 3 m/s 755 mmHg 94%
    05:00 +5°C° 0 mm 3 m/s 755 mmHg 94%
    06:00 +5°C° 0 mm 3 m/s 755 mmHg 95%
    07:00 +5°C° 0 mm 3 m/s 755 mmHg 95%
    08:00 +5°C° 0 mm 3 m/s 755 mmHg 96%
    09:00 +5°C° 0 mm 3 m/s 755 mmHg 96%
    10:00 +7°C° 0.2 mm 3 m/s 754 mmHg 96%
    11:00 +8°C° 0.2 mm 3 m/s 754 mmHg 95%
    12:00 +8°C° 0.2 mm 3 m/s 754 mmHg 94%
    13:00 +8°C° 0.9 mm 3 m/s 753 mmHg 95%
    14:00 +7°C° 0.9 mm 4 m/s 753 mmHg 96%
    15:00 +7°C° 0.9 mm 4 m/s 752 mmHg 96%
    16:00 +8°C° 1.5 mm 4 m/s 752 mmHg 95%
    17:00 +9°C° 1.5 mm 5 m/s 752 mmHg 95%
    18:00 +9°C° 1.5 mm 5 m/s 752 mmHg 94%
    19:00 +10°C° 0.5 mm 6 m/s 752 mmHg 93%
    20:00 +10°C° 0.5 mm 6 m/s 752 mmHg 92%
    21:00 +10°C° 0.5 mm 7 m/s 752 mmHg 90%
    22:00 +10°C° 0.1 mm 7 m/s 752 mmHg 91%
    23:00 +10°C° 0.1 mm 7 m/s 752 mmHg 91%
    Arată mai mult